sat.trackr.live / text

‹ back to catalog

STARLINK-11235 [DTC]

NORAD 60726 · 2024-152G

PAYLOAD ACTIVE UNKNOWN

§ Identity

Operator
Country
US
Launch date
2024-08-28
Launch site
AFETR
Launch vehicle
Mass (kg)
RCS (m²)

Purposes: comms

External: N2YO · Heavens-Above · Gunter

§ Orbital elements

Epoch: 2026-05-25T03:29:29.550624Z

Period
91.74 min
Inclination
53.1594°
Eccentricity
0.0001049
Mean motion
15.69699228 rev/d
Perigee alt
359.1 km
Apogee alt
360.5 km
Semi-major
6,737.9 km
B*
2.3639e-5
RAAN
99.3370°
Arg perigee
60.7668°
Mean anomaly
299.3455°
Rev number
10,097

§ Raw data

STARLINK-11235 [DTC]1 60726U 24152G   26145.14548091  .00002275  00000+0  23639-4 0  99972 60726  53.1594  99.3370 0001049  60.7668 299.3455 15.69699228100979

JSON: /api/v1/satellites/60726 · /tle

For live sub-satellite position, see the globe view (requires WebGL).

§ Visibility from observer

Set your observer location to see the next 7 days of passes ≥ 10°. The values pass through the URL so the page stays shareable.

No JS? Fill the form by hand. The geolocation button needs JavaScript.